Time,TemperatureF,DewpointF,PressureIn,WindDirection,WindDirectionDegrees,WindSpeedMPH,WindSpeedGustMPH,Humidity,HourlyPrecipIn,Conditions,Clouds,dailyrainin,SoftwareType,DateUTC
2013-04-21 00:02:00,29.0,27.0,-100.00,SE,140,15.0,21.0,86,0.00,,,0.00,,2013-04-21 05:02:00,
2013-04-21 00:12:00,29.0,27.0,-100.00,SE,130,12.0,21.0,87,0.00,,,0.00,,2013-04-21 05:12:00,
2013-04-21 00:22:00,29.0,27.0,-100.00,SE,125,13.0,22.0,87,0.00,,,0.00,,2013-04-21 05:22:00,
2013-04-21 00:32:00,29.0,27.0,-100.00,SE,125,15.0,21.0,89,0.00,,,0.00,,2013-04-21 05:32:00,
2013-04-21 00:42:00,29.0,27.0,-100.00,SE,125,16.0,21.0,90,0.00,,,0.00,,2013-04-21 05:42:00,
2013-04-21 00:52:00,30.0,27.0,-100.00,SE,130,15.0,21.0,91,0.00,,,0.00,,2013-04-21 05:52:00,
2013-04-21 01:01:00,30.0,28.0,-100.00,SE,125,18.0,22.0,92,0.00,,,0.00,,2013-04-21 06:01:00,
2013-04-21 01:12:00,30.0,28.0,-100.00,ESE,120,16.0,22.0,93,0.00,,,0.00,,2013-04-21 06:12:00,
2013-04-21 01:21:00,30.0,28.0,-100.00,SE,125,14.0,22.0,93,0.00,,,0.00,,2013-04-21 06:21:00,
2013-04-21 01:32:00,30.0,28.0,-100.00,SE,125,16.0,22.0,93,0.00,,,0.00,,2013-04-21 06:32:00,
2013-04-21 01:42:00,30.0,28.0,-100.00,SE,125,17.0,21.0,93,0.00,,,0.00,,2013-04-21 06:42:00,
2013-04-21 01:51:00,30.0,28.0,-100.00,SE,125,18.0,22.0,93,0.00,,,0.00,,2013-04-21 06:51:00,
2013-04-21 02:01:00,31.0,28.0,-100.00,SE,125,19.0,24.0,93,0.00,,,0.00,,2013-04-21 07:01:00,
2013-04-21 02:11:00,31.0,28.0,-100.00,SE,130,17.0,23.0,94,0.00,,,0.00,,2013-04-21 07:11:00,
2013-04-21 02:21:00,31.0,28.0,-100.00,SE,125,17.0,23.0,94,0.00,,,0.00,,2013-04-21 07:21:00,
2013-04-21 02:31:00,31.0,30.0,-100.00,ESE,115,17.0,24.0,94,0.00,,,0.00,,2013-04-21 07:31:00,
2013-04-21 02:41:00,31.0,30.0,-100.00,SE,125,19.0,24.0,94,0.00,,,0.00,,2013-04-21 07:41:00,
2013-04-21 02:52:00,31.0,30.0,-100.00,ESE,120,17.0,24.0,94,0.00,,,0.00,,2013-04-21 07:52:00,
2013-04-21 03:01:00,31.0,30.0,-100.00,ESE,120,19.0,24.0,94,0.00,,,0.00,,2013-04-21 08:01:00,
2013-04-21 03:12:00,31.0,30.0,-100.00,ESE,120,22.0,28.0,94,0.00,,,0.00,,2013-04-21 08:12:00,
2013-04-21 03:21:00,31.0,30.0,-100.00,ESE,115,18.0,27.0,94,0.00,,,0.00,,2013-04-21 08:21:00,
2013-04-21 03:32:00,32.0,30.0,-100.00,ESE,120,20.0,27.0,93,0.00,,,0.00,,2013-04-21 08:32:00,
2013-04-21 03:41:00,32.0,30.0,-100.00,ESE,120,22.0,28.0,93,0.00,,,0.00,,2013-04-21 08:41:00,
2013-04-21 03:52:00,32.0,30.0,-100.00,SE,125,21.0,27.0,92,0.00,,,0.00,,2013-04-21 08:52:00,
2013-04-21 04:01:00,33.0,30.0,-100.00,ESE,120,21.0,28.0,91,0.00,,,0.00,,2013-04-21 09:01:00,
2013-04-21 04:11:00,33.0,30.0,-100.00,ESE,120,20.0,27.0,91,0.00,,,0.00,,2013-04-21 09:11:00,
2013-04-21 04:21:00,33.0,30.0,-100.00,ESE,120,19.0,27.0,90,0.00,,,0.00,,2013-04-21 09:21:00,
2013-04-21 04:32:00,33.0,30.0,-100.00,SE,125,19.0,26.0,90,0.00,,,0.00,,2013-04-21 09:32:00,
2013-04-21 04:43:00,33.0,30.0,-100.00,SE,125,20.0,24.0,89,0.00,,,0.00,,2013-04-21 09:43:00,
2013-04-21 04:52:00,33.0,30.0,-100.00,ESE,120,21.0,29.0,89,0.00,,,0.00,,2013-04-21 09:52:00,
2013-04-21 05:02:00,33.0,30.0,-100.00,SE,125,21.0,27.0,87,0.00,,,0.00,,2013-04-21 10:02:00,
2013-04-21 05:12:00,33.0,30.0,-100.00,ESE,115,21.0,29.0,86,0.00,,,0.00,,2013-04-21 10:12:00,
2013-04-21 05:22:00,34.0,30.0,-100.00,ESE,115,20.0,28.0,85,0.00,,,0.00,,2013-04-21 10:22:00,
2013-04-21 05:32:00,34.0,30.0,-100.00,SE,125,21.0,29.0,84,0.00,,,0.00,,2013-04-21 10:32:00,
2013-04-21 05:42:00,34.0,28.0,-100.00,SE,125,22.0,27.0,82,0.00,,,0.00,,2013-04-21 10:42:00,
2013-04-21 05:52:00,34.0,28.0,-100.00,SE,130,22.0,32.0,80,0.00,,,0.00,,2013-04-21 10:52:00,
2013-04-21 06:02:00,34.0,28.0,-100.00,SE,125,21.0,32.0,79,0.00,,,0.00,,2013-04-21 11:02:00,
2013-04-21 06:12:00,35.0,28.0,-100.00,ESE,120,25.0,34.0,78,0.00,,,0.00,,2013-04-21 11:12:00,
2013-04-21 06:22:00,34.0,28.0,-100.00,SE,125,24.0,32.0,78,0.00,,,0.00,,2013-04-21 11:22:00,
2013-04-21 06:34:00,34.0,28.0,-100.00,SE,125,23.0,30.0,78,0.00,,,0.00,,2013-04-21 11:34:00,
2013-04-21 06:42:00,35.0,28.0,-100.00,SE,125,23.0,30.0,78,0.00,,,0.00,,2013-04-21 11:42:00,
2013-04-21 06:52:00,35.0,28.0,-100.00,SE,130,22.0,31.0,77,0.00,,,0.00,,2013-04-21 11:52:00,
2013-04-21 07:02:00,35.0,28.0,-100.00,SE,125,24.0,30.0,77,0.00,,,0.00,,2013-04-21 12:02:00,
2013-04-21 07:12:00,35.0,28.0,-100.00,SE,125,25.0,30.0,77,0.00,,,0.00,,2013-04-21 12:12:00,
2013-04-21 07:22:00,35.0,28.0,-100.00,SE,130,24.0,33.0,74,0.00,,,0.00,,2013-04-21 12:22:00,
2013-04-21 07:32:00,35.0,28.0,-100.00,SE,130,26.0,34.0,75,0.00,,,0.00,,2013-04-21 12:32:00,
2013-04-21 07:42:00,35.0,28.0,-100.00,SE,135,22.0,36.0,74,0.00,,,0.00,,2013-04-21 12:42:00,
2013-04-21 07:52:00,36.0,28.0,-100.00,SE,135,22.0,36.0,74,0.00,,,0.00,,2013-04-21 12:52:00,
2013-04-21 08:01:00,36.0,28.0,-100.00,SE,130,23.0,31.0,74,0.00,,,0.00,,2013-04-21 13:01:00,
2013-04-21 08:11:00,36.0,28.0,-100.00,SE,140,22.0,33.0,74,0.00,,,0.00,,2013-04-21 13:11:00,
2013-04-21 08:21:00,36.0,28.0,-100.00,SE,135,22.0,30.0,75,0.00,,,0.00,,2013-04-21 13:21:00,
2013-04-21 08:32:00,36.0,28.0,-100.00,SE,135,21.0,31.0,75,0.00,,,0.00,,2013-04-21 13:32:00,
2013-04-21 08:42:00,36.0,28.0,-100.00,SE,145,18.0,31.0,75,0.00,,,0.00,,2013-04-21 13:42:00,
2013-04-21 08:52:00,36.0,28.0,-100.00,SE,145,23.0,35.0,75,0.00,,,0.00,,2013-04-21 13:52:00,
2013-04-21 09:02:00,36.0,28.0,-100.00,SE,140,22.0,31.0,76,0.00,,,0.00,,2013-04-21 14:02:00,
2013-04-21 09:11:00,36.0,28.0,-100.00,SSE,150,21.0,32.0,76,0.00,,,0.00,,2013-04-21 14:11:00,
2013-04-21 09:21:00,36.0,30.0,-100.00,SE,130,20.0,32.0,77,0.00,,,0.00,,2013-04-21 14:21:00,
2013-04-21 09:32:00,36.0,30.0,-100.00,SE,145,20.0,29.0,78,0.00,,,0.00,,2013-04-21 14:32:00,
2013-04-21 09:42:00,36.0,30.0,-100.00,SE,140,26.0,35.0,78,0.00,,,0.00,,2013-04-21 14:42:00,
2013-04-21 09:52:00,37.0,30.0,-100.00,SSE,150,24.0,31.0,78,0.00,,,0.00,,2013-04-21 14:52:00,
2013-04-21 10:02:00,37.0,30.0,-100.00,SE,145,22.0,32.0,78,0.00,,,0.00,,2013-04-21 15:02:00,
2013-04-21 10:11:00,37.0,30.0,-100.00,SE,130,22.0,35.0,78,0.00,,,0.00,,2013-04-21 15:11:00,
2013-04-21 10:22:00,37.0,30.0,-100.00,SE,135,20.0,30.0,79,0.00,,,0.00,,2013-04-21 15:22:00,
2013-04-21 10:33:00,37.0,32.0,-100.00,SE,145,26.0,32.0,80,0.00,,,0.00,,2013-04-21 15:33:00,
2013-04-21 10:42:00,37.0,32.0,-100.00,SSE,150,22.0,32.0,80,0.00,,,0.00,,2013-04-21 15:42:00,
2013-04-21 10:53:00,38.0,32.0,-100.00,SSE,150,25.0,34.0,80,0.00,,,0.00,,2013-04-21 15:53:00,
2013-04-21 11:03:00,38.0,32.0,-100.00,SE,145,23.0,32.0,80,0.00,,,0.00,,2013-04-21 16:03:00,
2013-04-21 11:12:00,38.0,34.0,-100.00,SSE,150,22.0,31.0,80,0.00,,,0.00,,2013-04-21 16:12:00,
2013-04-21 11:22:00,39.0,34.0,-100.00,SSE,150,21.0,31.0,80,0.00,,,0.00,,2013-04-21 16:22:00,
2013-04-21 11:32:00,40.0,34.0,-100.00,SSE,155,21.0,30.0,78,0.00,,,0.00,,2013-04-21 16:32:00,
2013-04-21 11:42:00,40.0,34.0,-100.00,SSE,150,22.0,30.0,76,0.00,,,0.00,,2013-04-21 16:42:00,
2013-04-21 11:52:00,40.0,34.0,-100.00,SE,145,23.0,29.0,76,0.00,,,0.00,,2013-04-21 16:52:00,
2013-04-21 12:02:00,40.0,34.0,-100.00,SSE,150,22.0,29.0,76,0.00,,,0.00,,2013-04-21 17:02:00,
2013-04-21 12:12:00,41.0,34.0,-100.00,SSE,155,22.0,27.0,75,0.00,,,0.00,,2013-04-21 17:12:00,
2013-04-21 12:22:00,41.0,34.0,-100.00,SE,145,19.0,27.0,74,0.00,,,0.00,,2013-04-21 17:22:00,
2013-04-21 12:32:00,41.0,34.0,-100.00,SSE,155,18.0,27.0,74,0.00,,,0.00,,2013-04-21 17:32:00,
2013-04-21 12:42:00,42.0,34.0,-100.00,SSE,155,21.0,29.0,73,0.00,,,0.00,,2013-04-21 17:42:00,
2013-04-21 12:52:00,42.0,34.0,-100.00,SSE,165,24.0,29.0,73,0.00,,,0.00,,2013-04-21 17:52:00,
2013-04-21 13:02:00,42.0,34.0,-100.00,SSE,155,22.0,27.0,73,0.00,,,0.00,,2013-04-21 18:02:00,
2013-04-21 13:11:00,42.0,34.0,-100.00,SSE,160,21.0,27.0,73,0.00,,,0.00,,2013-04-21 18:11:00,
2013-04-21 13:22:00,42.0,34.0,-100.00,SSE,160,21.0,26.0,73,0.00,,,0.00,,2013-04-21 18:22:00,
2013-04-21 13:32:00,43.0,36.0,-100.00,SSE,160,19.0,23.0,73,0.00,,,0.00,,2013-04-21 18:32:00,
2013-04-21 13:42:00,43.0,36.0,-100.00,SSE,160,19.0,27.0,73,0.00,,,0.00,,2013-04-21 18:42:00,
2013-04-21 13:52:00,44.0,36.0,-100.00,SSE,165,18.0,25.0,73,0.00,,,0.00,,2013-04-21 18:52:00,
2013-04-21 14:02:00,44.0,36.0,-100.00,South,175,19.0,26.0,71,0.00,,,0.00,,2013-04-21 19:02:00,
2013-04-21 14:11:00,44.0,36.0,-100.00,South,170,18.0,26.0,71,0.00,,,0.00,,2013-04-21 19:11:00,
2013-04-21 14:21:00,43.0,36.0,-100.00,South,170,18.0,24.0,74,0.00,,,0.00,,2013-04-21 19:21:00,
2013-04-21 14:32:00,42.0,36.0,-100.00,South,175,13.0,21.0,78,0.00,,,0.00,,2013-04-21 19:32:00,
2013-04-21 14:42:00,42.0,37.0,-100.00,South,185,13.0,19.0,80,0.00,,,0.00,,2013-04-21 19:42:00,
2013-04-21 14:52:00,42.0,37.0,-100.00,South,185,13.0,17.0,83,0.00,,,0.00,,2013-04-21 19:52:00,
2013-04-21 15:02:00,41.0,37.0,-100.00,SSW,195,12.0,16.0,86,0.00,,,0.00,,2013-04-21 20:02:00,
2013-04-21 15:11:00,41.0,37.0,-100.00,South,185,13.0,16.0,86,0.00,,,0.00,,2013-04-21 20:11:00,
2013-04-21 15:22:00,40.0,37.0,-100.00,South,180,12.0,18.0,88,0.00,,,0.00,,2013-04-21 20:22:00,
2013-04-21 15:31:00,40.0,37.0,-100.00,SSW,210,9.0,18.0,91,0.00,,,0.00,,2013-04-21 20:31:00,
2013-04-21 15:41:00,40.0,37.0,-100.00,South,185,10.0,13.0,93,0.00,,,0.00,,2013-04-21 20:41:00,
2013-04-21 15:52:00,40.0,39.0,-100.00,SSW,210,9.0,11.0,94,0.00,,,0.00,,2013-04-21 20:52:00,
2013-04-21 16:02:00,40.0,39.0,-100.00,SW,220,9.0,12.0,95,0.00,,,0.00,,2013-04-21 21:02:00,
2013-04-21 16:12:00,40.0,39.0,-100.00,SW,215,7.0,11.0,95,0.00,,,0.00,,2013-04-21 21:12:00,
2013-04-21 16:21:00,40.0,39.0,-100.00,SW,220,9.0,12.0,95,0.00,,,0.00,,2013-04-21 21:21:00,
2013-04-21 16:33:00,40.0,39.0,-100.00,SSW,205,9.0,12.0,95,0.00,,,0.00,,2013-04-21 21:33:00,
2013-04-21 16:43:00,40.0,39.0,-100.00,SW,215,8.0,12.0,95,0.00,,,0.00,,2013-04-21 21:43:00,
2013-04-21 16:53:00,39.0,39.0,-100.00,SW,220,9.0,12.0,95,0.00,,,0.00,,2013-04-21 21:53:00,
2013-04-21 17:02:00,39.0,39.0,-100.00,SW,225,9.0,12.0,95,0.00,,,0.00,,2013-04-21 22:02:00,
2013-04-21 17:12:00,39.0,39.0,-100.00,SW,230,9.0,14.0,95,0.00,,,0.00,,2013-04-21 22:12:00,
2013-04-21 17:22:00,39.0,37.0,-100.00,SW,235,9.0,12.0,95,0.00,,,0.00,,2013-04-21 22:22:00,
2013-04-21 17:33:00,39.0,37.0,-100.00,WSW,240,11.0,13.0,95,0.00,,,0.00,,2013-04-21 22:33:00,
2013-04-21 17:43:00,39.0,37.0,-100.00,WSW,240,10.0,12.0,95,0.00,,,0.00,,2013-04-21 22:43:00,
2013-04-21 17:52:00,39.0,37.0,-100.00,WSW,245,10.0,13.0,95,0.00,,,0.00,,2013-04-21 22:52:00,
2013-04-21 18:02:00,39.0,37.0,-100.00,WSW,250,9.0,11.0,95,0.00,,,0.00,,2013-04-21 23:02:00,
2013-04-21 18:12:00,38.0,37.0,-100.00,WSW,255,9.0,12.0,95,0.00,,,0.00,,2013-04-21 23:12:00,
2013-04-21 18:22:00,38.0,37.0,-100.00,West,260,12.0,13.0,95,0.00,,,0.00,,2013-04-21 23:22:00,
2013-04-21 18:32:00,38.0,37.0,-100.00,West,270,11.0,15.0,95,0.00,,,0.00,,2013-04-21 23:32:00,
2013-04-21 18:42:00,38.0,37.0,-100.00,West,280,12.0,15.0,95,0.00,,,0.00,,2013-04-21 23:42:00,
2013-04-21 18:52:00,38.0,37.0,-100.00,West,280,12.0,15.0,95,0.00,,,0.00,,2013-04-21 23:52:00,
2013-04-21 19:01:00,37.0,36.0,-100.00,WNW,285,16.0,21.0,95,0.00,,,0.00,,2013-04-22 00:01:00,
2013-04-21 19:11:00,37.0,36.0,-100.00,WNW,290,17.0,21.0,94,0.00,,,0.00,,2013-04-22 00:11:00,
2013-04-21 19:21:00,37.0,36.0,-100.00,WNW,295,13.0,16.0,94,0.00,,,0.00,,2013-04-22 00:21:00,
2013-04-21 19:32:00,36.0,36.0,-100.00,WNW,300,14.0,18.0,94,0.00,,,0.00,,2013-04-22 00:32:00,
2013-04-21 19:42:00,36.0,36.0,-100.00,WNW,300,14.0,18.0,94,0.00,,,0.00,,2013-04-22 00:42:00,
2013-04-21 19:51:00,36.0,34.0,-100.00,NW,305,12.0,17.0,93,0.00,,,0.00,,2013-04-22 00:51:00,
2013-04-21 20:01:00,36.0,34.0,-100.00,WNW,300,10.0,15.0,93,0.00,,,0.00,,2013-04-22 01:01:00,
2013-04-21 20:12:00,36.0,34.0,-100.00,NW,310,10.0,13.0,93,0.00,,,0.00,,2013-04-22 01:12:00,
2013-04-21 20:21:00,36.0,34.0,-100.00,NW,310,9.0,16.0,93,0.00,,,0.00,,2013-04-22 01:21:00,
2013-04-21 20:32:00,36.0,34.0,-100.00,NW,310,10.0,15.0,92,0.00,,,0.00,,2013-04-22 01:32:00,
2013-04-21 20:41:00,36.0,34.0,-100.00,NW,310,10.0,14.0,92,0.00,,,0.00,,2013-04-22 01:41:00,
2013-04-21 20:52:00,36.0,34.0,-100.00,NW,310,10.0,14.0,92,0.00,,,0.00,,2013-04-22 01:52:00,
2013-04-21 21:02:00,36.0,34.0,-100.00,NW,310,10.0,12.0,92,0.00,,,0.00,,2013-04-22 02:02:00,
2013-04-21 21:11:00,36.0,34.0,-100.00,NW,305,11.0,14.0,92,0.00,,,0.00,,2013-04-22 02:11:00,
2013-04-21 21:21:00,36.0,34.0,-100.00,NW,305,8.0,13.0,92,0.00,,,0.00,,2013-04-22 02:21:00,
2013-04-21 21:32:00,36.0,34.0,-100.00,NW,305,10.0,14.0,93,0.00,,,0.00,,2013-04-22 02:32:00,
2013-04-21 21:42:00,36.0,34.0,-100.00,NW,310,10.0,16.0,93,0.00,,,0.00,,2013-04-22 02:42:00,
2013-04-21 21:51:00,36.0,34.0,-100.00,NW,310,11.0,17.0,93,0.00,,,0.00,,2013-04-22 02:51:00,
2013-04-21 22:02:00,36.0,34.0,-100.00,NW,315,11.0,15.0,93,0.00,,,0.00,,2013-04-22 03:02:00,
2013-04-21 22:11:00,35.0,34.0,-100.00,NW,315,10.0,16.0,93,0.00,,,0.00,,2013-04-22 03:11:00,
2013-04-21 22:22:00,35.0,34.0,-100.00,NW,315,12.0,18.0,93,0.00,,,0.00,,2013-04-22 03:22:00,
2013-04-21 22:33:00,35.0,34.0,-100.00,NW,320,14.0,17.0,92,0.00,,,0.00,,2013-04-22 03:33:00,
2013-04-21 22:42:00,35.0,32.0,-100.00,NW,315,13.0,18.0,92,0.00,,,0.00,,2013-04-22 03:42:00,
2013-04-21 22:52:00,35.0,32.0,-100.00,NW,320,15.0,18.0,90,0.00,,,0.00,,2013-04-22 03:52:00,
2013-04-21 23:03:00,34.0,32.0,-100.00,NW,315,13.0,19.0,89,0.00,,,0.00,,2013-04-22 04:03:00,
2013-04-21 23:12:00,34.0,32.0,-100.00,NW,325,16.0,19.0,88,0.00,,,0.00,,2013-04-22 04:12:00,
2013-04-21 23:23:00,34.0,30.0,-100.00,NNW,330,12.0,16.0,88,0.00,,,0.00,,2013-04-22 04:23:00,
2013-04-21 23:33:00,33.0,30.0,-100.00,NNW,330,13.0,16.0,88,0.00,,,0.00,,2013-04-22 04:33:00,
2013-04-21 23:43:00,33.0,30.0,-100.00,NW,320,12.0,16.0,88,0.00,,,0.00,,2013-04-22 04:43:00,
2013-04-21 23:52:00,33.0,30.0,-100.00,NW,325,11.0,17.0,88,0.00,,,0.00,,2013-04-22 04:52:00,